Weather History for Harare Kutsaga, Zimbabwe

Change the Weather History Date:

Friday, April 5, 2013

  Actual Average Record
Temperature  
Mean Temperature 63 °F -  
Max Temperature 71 °F 77 °F 86 °F (1998)
Min Temperature 55 °F 53 °F 51 °F (2012)
Degree Days  
Heating Degree Days 2    
Growing Degree Days 13 (Base 50)    
Moisture  
Dew Point 56 °F    
Average Humidity 82    
Maximum Humidity 100    
Minimum Humidity 50    
Precipitation  
Precipitation 0.00 in 0.05 in - ()
Sea Level Pressure  
Sea Level Pressure 30.21 in    
Wind  
Wind Speed 8 mph ()    
Max Wind Speed 12 mph    
Max Gust Speed -    
Visibility 8.3 miles    
Events      
Averages and records for this station are not official NWS values.
T = Trace of Precipitation, MM = Missing Value Source: Averaged Metar Reports

Daily Weather History Graph

Daily Weather History Graph

Search for Another Location

Airport:

Trip Planner

Search our weather history database for the weather conditions in past years. The results will help you decide how hot, cold, wet, or windy it might be!

Date:

Astronomy

Apr. 05, 2013 Rise Set
Actual Time 6:02 AM CAT 5:53 PM CAT
Civil Twilight 5:40 AM CAT 6:15 PM CAT
Nautical Twilight 5:15 AM CAT 6:40 PM CAT
Astronomical Twilight 4:50 AM CAT 7:05 PM CAT
Moon 1:23 AM CAT (4/5) 2:20 PM CAT (4/5)
Length of Visible Light 12h 34m
Length of Day
11h 50m
Waning Crescent, 26% of the Moon is Illuminated
Apr 5
Waning Crescent
Apr 10
New
Apr 18
First Quarter
Apr 25
Full
May 2
Last Quarter

Hourly Weather History & Observations

Time (CAT) Temp. Dew Point Humidity Pressure Visibility Wind Dir Wind Speed Gust Speed Precip Events Conditions
12:00 AM 57.2 °F 55.4 °F 94% 30.21 in 6.2 mi SE 9.2 mph - N/A   Mostly Cloudy
1:00 AM 57.2 °F 55.4 °F 94% 30.18 in 6.2 mi SE 6.9 mph - N/A   Mostly Cloudy
2:00 AM 57 °F 55 °F 91%  in 19 mi SSE 10.4 mph - -   Overcast
4:00 AM 57.2 °F 55.4 °F 94% 30.18 in 6.2 mi SE 10.4 mph - N/A   Overcast
5:00 AM 57.2 °F 55.4 °F 94% 30.21 in 6.2 mi SSE 10.4 mph - N/A   Overcast
6:00 AM 55.4 °F 55.4 °F 100% 30.21 in 6.2 mi SE 9.2 mph - N/A   Overcast
7:00 AM 57.2 °F 55.4 °F 94% 30.24 in 6.2 mi SE 8.1 mph - N/A   Mostly Cloudy
8:00 AM 59 °F 55 °F 83%  in 19 mi SE 11.5 mph - -   Mostly Cloudy
8:00 AM 59.0 °F 55.4 °F 88% 29.92 in 6.2 mi SE 11.5 mph - N/A   Mostly Cloudy
10:00 AM 66.2 °F 57.2 °F 73% 30.27 in 6.2 mi SE 9.2 mph - N/A   Mostly Cloudy
11:00 AM 68.0 °F 57.2 °F 68% 30.27 in 6.2 mi SSE 9.2 mph - N/A   Mostly Cloudy
12:00 PM 68.0 °F 57.2 °F 68% 30.24 in 6.2 mi South 10.4 mph - N/A   Mostly Cloudy
2:00 PM 72 °F 57 °F 50%  in 19 mi SSW 9.2 mph - -   Mostly Cloudy
2:00 PM 71.6 °F 57.2 °F 60% 30.18 in 6.2 mi SSW 9.2 mph - N/A   Mostly Cloudy
3:00 PM 71.6 °F 57.2 °F 60% 30.18 in 6.2 mi South 8.1 mph - N/A   Mostly Cloudy
4:00 PM 69.8 °F 57.2 °F 64% 30.18 in 6.2 mi South 9.2 mph - N/A   Mostly Cloudy
5:00 PM 66.2 °F 57.2 °F 73% 30.18 in 6.2 mi SSE 9.2 mph - N/A   Partly Cloudy
6:00 PM 64.4 °F 55.4 °F 73% 30.21 in 6.2 mi SSE 6.9 mph - N/A   Partly Cloudy
7:00 PM 59.0 °F 55.4 °F 88% 30.21 in 6.2 mi SE 5.8 mph - N/A   Partly Cloudy
8:00 PM 58 °F 56 °F 90%  in 19 mi SSE 8.1 mph - -   Scattered Clouds
8:00 PM 59.0 °F 55.4 °F 88% 30.24 in 6.2 mi SSE 8.1 mph - N/A   Partly Cloudy
9:00 PM 57.2 °F 55.4 °F 94% 30.27 in 6.2 mi SSE 6.9 mph - N/A   Partly Cloudy
10:00 PM 55.4 °F 53.6 °F 94% 30.27 in 6.2 mi SSE 9.2 mph - N/A   Partly Cloudy
11:00 PM 55.4 °F 53.6 °F 94% 30.27 in 6.2 mi SE 8.1 mph - N/A   Scattered Clouds